OVZON-3

Last updated on Thu Nov 21 2024 00:02:45 GMT+0000 (Coordinated Universal Time)

1 58698U 24003A 24324.52092458 .00000053 00000+0 00000+0 0 9991 2 58698 0.0153 264.7450 0001508 353.1351 48.3946 1.00272537 1675
UTC large
Height (km)
Speed (km/s)
/
Latitude / Longitude
Inclination (degrees)
Orbital Period (minutes)
Azimuth
Elevation
Range (km)
Doppler Factor

Next 0 passes for location: London (51.5072 / 0.1276)

Sorry there are no passes over London.